Regional Weather Roundup
Issued by NWS Grand Forks, ND

Home | Current Version | Previous Version | Graphics & Text | Print | Product List | Glossary On
Versions: 1 2 3 4 5 6 7 8 9 10 11 12 13 14 15 16 17 18 19 20 21 22 23 24 25 26 27 28 29 30 31 32 33 34 35 36 37 38 39 40 41 42 43 44 45 46 47 48 49 50
000
ASUS43 KFGF 251831
RWRFGF
PRAIRIE TO PINES  WEATHER ROUNDUP
NATIONAL WEATHER SERVICE EASTERN NORTH DAKOTA/GRAND FORKS ND
100 PM CDT MON MAY 25 2015

 **SATELLITE DATA USED TO AUGMENT SKY COVER AT AUTOMATED STATIONS**
 *****  WEATHER ACROSS EASTERN NORTH DAKOTA  *****

CITY           SKY/WX    TMP DP  RH WIND       PRES   REMARKS
GRAND FORKS    CLOUDY    68  51  54 N5        29.75F
6HR MIN TEMP:  56; 6HR MAX TEMP:  68;

GRAND FRKS AFB CLOUDY    70  50  50 NE7       29.76F
GRAND FRKS NWS   N/A     66 N/A N/A N3          N/A
DEVILS LAKE    PTSUNNY   75  39  27 E10G22    29.78S
6HR MIN TEMP:  57; 6HR MAX TEMP:  75;

FARGO          LGT RAIN  65  57  75 NE13      29.77F
WAHPETON ARPT  CLOUDY    59  52  77 NE18G28   29.74S
$$

 ***** WEATHER ACROSS CENTRAL AND WESTERN NORTH DAKOTA  *****

CITY           SKY/WX    TMP DP  RH WIND       PRES   REMARKS
BISMARCK       CLOUDY    66  53  63 SE5       29.86S
6HR MIN TEMP:  56; 6HR MAX TEMP:  66; 6HR PCP:  0.17;

MINOT          MOSUNNY   75  44  33 NW5       29.83F
6HR MIN TEMP:  54; 6HR MAX TEMP:  76;

JAMESTOWN      PTSUNNY   68  56  65 VRB6      29.80S
6HR MIN TEMP:  57; 6HR MAX TEMP:  68; 6HR PCP:  0.02;

MINOT AFB      MOSUNNY   80  46  30 E3        29.82F
GARRISON         N/A     70  49  47 VRB3      29.85S
WILLISTON      PTSUNNY   76  47  35 MISG      29.86F
6HR MIN TEMP:  48; 6HR MAX TEMP:  76;

DICKINSON      CLOUDY    60  53  77 E8        29.88S
6HR MIN TEMP:  54; 6HR MAX TEMP:  60; 6HR PCP:  0.02;

HETTINGER      LGT RAIN  56  52  86 E14       29.89S
6HR MIN TEMP:  53; 6HR MAX TEMP:  56; 6HR PCP:  0.04;

$$

 *****  OTHER AIRPORT OBSERVATIONS IN OUR AREA  *****

CITY           SKY/WX    TMP DP  RH WIND       PRES   REMARKS
WALHALLA         N/A     77  41  27 NE9       29.78F
GRAFTON AIRPOR FAIR      73  46  38 N8G15     29.76F
VALLEY CITY AR FAIR      64  63  94 W7        29.80F
CANDO          FAIR      79  37  22 NE10G18   29.80F
CAVALIER APRT  FAIR      77  39  25 NE12      29.77F
GWINNER        NOT AVBL
ROLLA            N/A     77  34  20 N12       29.82F
 ***** THE ABOVE OBSERVATIONS ARE NON NWS ARE NOT QUALITY
       CONTROLLED AND MAY MIS-REPORT RAIN FOR SNOW...
$$

  *****  WEATHER ACROSS NORTHERN MINNESOTA  *****

CITY           SKY/WX    TMP DP  RH WIND       PRES   REMARKS
FLAG ISLAND    CLOUDY    64  50  59 SW3       29.75S
WARROAD        CLOUDY    64  52  63 E5        29.77S
ROSEAU         CLOUDY    72  50  46 E5        29.76R
HALLOCK        CLOUDY    73  46  38 N7        29.75F
THF RVR FALLS  CLOUDY    64  52  63 SE7       29.78R
6HR MIN TEMP:  55; 6HR MAX TEMP:  64;

BAUDETTE       CLOUDY    64  55  72 SW5       29.77S
6HR MIN TEMP:  53; 6HR MAX TEMP:  64;

WASKISH        LGT RAIN  63  55  77 CALM      29.77F
CROOKSTON      CLOUDY    70  55  60 S5        29.77S
STEPHEN NDAWN    N/A     72  48  43 NE8         N/A
GREENBUSH NDAW   N/A     70  52  52 N8          N/A
$$
  *****  WEATHER ACROSS CENTRAL AND WEST MINNESOTA  *****

CITY           SKY/WX    TMP DP  RH WIND       PRES   REMARKS
FOSSTON        LGT RAIN  61  55  82 E3        29.79S
BEMIDJI        LGT RAIN  58  56  90 N3        29.77R
PARK RAPIDS    RAIN      59  55  87 N13       29.71S FOG
6HR MIN TEMP:  57; 6HR MAX TEMP:  59; 6HR PCP:  0.60;

ELBOW LAKE     LGT RAIN  58  56  92 N14G21    29.70R
6HR MIN TEMP:  56; 6HR MAX TEMP:  58; 6HR PCP:  0.65;

WADENA         HVY RAIN  57  55  94 NE9G16    29.68S
DETROIT LAKES  LGT RAIN  55  54  94 N9G17     29.76F
MOORHEAD       CLOUDY    63  55  77 NE14G20   29.78S
FERGUS FALLS   LGT RAIN  57  55  94 NE15G23   29.73R
MORRIS MN      CLOUDY    63  59  88 N14       29.68S
STAPLES        RAIN      57  57 100 N3        29.67S
$$
  *****  WEATHER ELSEWHERE ACROSS MINNESOTA  *****

CITY           SKY/WX    TMP DP  RH WIND       PRES   REMARKS
DULUTH         FOG       54  52  93 E14       29.69S VSB 1/2
6HR MIN TEMP:  54; 6HR MAX TEMP:  59; 6HR PCP:  0.31;

INTRNTL FALLS  LGT RAIN  65  52  62 E3        29.77F
6HR MIN TEMP:  55; 6HR MAX TEMP:  65; 6HR PCP: TRACE;

ELY            RAIN      57  55  94 NE7       29.75S
CLOQUET        DRZL/FOG  54  52  94 E8        29.69S VSB 1
WHEATON        CLOUDY    57  54  88 N16G24    29.74S
BRAINERD       LGT RAIN  57  56  96 E5        29.68R FOG
6HR MIN TEMP:  57; 6HR MAX TEMP:  58; 6HR PCP:  0.27;

HIBBING        RAIN      59  55  87 NE12      29.71R FOG
6HR MIN TEMP:  57; 6HR MAX TEMP:  59; 6HR PCP:  0.27;

ALEXANDRIA     CLOUDY    60  56  86 CALM      29.69R
6HR MIN TEMP:  57; 6HR MAX TEMP:  60; 6HR PCP:  0.27;

SAINT CLOUD    CLOUDY    62  57  83 SW13      29.67R
6HR MIN TEMP:  57; 6HR MAX TEMP:  62; 6HR PCP:  0.02;

MINNEAPOLIS    CLOUDY    66  57  72 SW12G22   29.71S
6HR MIN TEMP:  57; 6HR MAX TEMP:  66;

$$

  *****  WEATHER ACROSS SOUTH DAKOTA  *****

CITY           SKY/WX    TMP DP  RH WIND       PRES   REMARKS
SIOUX FALLS    PTSUNNY   69  59  70 S7        29.74F
6HR MIN TEMP:  59; 6HR MAX TEMP:  66;

BROOKINGS      CLOUDY    63  55  77 W9        29.75S
WATERTOWN      CLOUDY    60  55  83 N13G21    29.75S
6HR MIN TEMP:  57; 6HR MAX TEMP:  61;

HURON          CLOUDY    61  56  83 N12       29.75F
6HR MIN TEMP:  57; 6HR MAX TEMP:  64; 6HR PCP:  0.01;

SISSETON         N/A     60  56  86 NE20G25   29.75R
ABERDEEN       CLOUDY    65  54  67 NE18G28   29.79S
6HR MIN TEMP:  57; 6HR MAX TEMP:  64; 6HR PCP:  0.02;

MITCHELL       CLOUDY    65  58  78 SW6       29.77R
PIERRE         CLOUDY    60  55  83 E9        29.78R
6HR MIN TEMP:  56; 6HR MAX TEMP:  61;

MOBRIDGE       LGT RAIN  61  58  90 E13       29.81S
RAPID CITY     PTSUNNY   60  53  77 N18       29.83R
6HR MIN TEMP:  51; 6HR MAX TEMP:  63;

$$

  *****  SOME WEATHER IN NEARBY STATES *****

CITY           SKY/WX    TMP DP  RH WIND       PRES   REMARKS
GLASGOW MT     SUNNY     74  42  31 VRB6      29.86S
6HR MIN TEMP:  51; 6HR MAX TEMP:  75;

GREAT FALLS MT SUNNY     65  46  50 VRB5      29.90F
6HR MIN TEMP:  43; 6HR MAX TEMP:  65;

CHEYENNE WY    CLOUDY    53  39  59 NW20G31   29.93S
6HR MIN TEMP:  43; 6HR MAX TEMP:  54; 6HR PCP: TRACE;

SCOTTSBLUFF NE RAIN      53  51  93 W13       29.87R FOG
6HR MIN TEMP:  50; 6HR MAX TEMP:  53; 6HR PCP:  0.39;

OMAHA NE       MOSUNNY   75  56  51 SW10G20   29.80R
6HR MIN TEMP:  62; 6HR MAX TEMP:  75;

DES MOINES IA  MOSUNNY   77  59  53 SW17G26   29.83R
6HR MIN TEMP:  64; 6HR MAX TEMP:  78;

DAVENPORT IA   MOSUNNY   75  63  66 SW18      29.88F
6HR MIN TEMP:  64; 6HR MAX TEMP:  75; 6HR PCP: TRACE;

CHICAGO IL     CLOUDY    71  64  78 SW15G21   29.89R
6HR MIN TEMP:  67; 6HR MAX TEMP:  73; 6HR PCP:  0.07;

EAU CLAIRE WI  CLOUDY    68  60  75 SW16G22   29.71R
6HR MIN TEMP:  58; 6HR MAX TEMP:  68; 6HR PCP: TRACE;

LA CROSSE WI   PTSUNNY   77  60  55 SW17G28   29.74S
6HR MIN TEMP:  65; 6HR MAX TEMP:  77; 6HR PCP: TRACE;

$$

  *****  SOME NATIONAL WEATHER *****

CITY           SKY/WX    TMP DP  RH WIND       PRES   REMARKS
LA GUARDIA NY  MOSUNNY   82  58  43 S13       30.20F
6HR MIN TEMP:  67; 6HR MAX TEMP:  83;

RALEIGH NC     MOSUNNY   82  56  40 S9        30.31F
6HR MIN TEMP:  66; 6HR MAX TEMP:  82;

ATLANTA GA     PTSUNNY   80  65  59 SE8       30.25F
6HR MIN TEMP:  68; 6HR MAX TEMP:  80;

NEW ORLEANS LA TSTM      85  72  65 S23G29    30.05F HX  91
6HR MIN TEMP:  77; 6HR MAX TEMP:  87;

OKLAHOMA CITY  CLOUDY    76  66  71 S17       29.88F
6HR MIN TEMP:  68; 6HR MAX TEMP:  78;

ALBUQUERQUE NM PTSUNNY   65  43  44 W10G17    30.00S
6HR MIN TEMP:  48; 6HR MAX TEMP:  65;

SALT LAKE CITY MOSUNNY   64  47  53 VRB5      29.97S
6HR MIN TEMP:  52; 6HR MAX TEMP:  64;

LOS ANGELES CA CLOUDY    62  54  74 VRB5      30.01R


USA.gov is the U.S. government's official web portal to all federal, state and local government web resources and services.